Weather History for Cold Bay, AK

Change the Weather History Date:

Saturday, November 10, 2012

  Actual Average Record
Temperature  
Mean Temperature 40 °F 35 °F  
Max Temperature 41 °F 40 °F 50 °F (1959)
Min Temperature 39 °F 31 °F 14 °F (1956)
Degree Days  
Heating Degree Days 25 30  
Month to date heating degree days 317 290  
Since 1 July heating degree days 2583 2403  
Cooling Degree Days 0    
Month to date cooling degree days 0  
Year to date cooling degree days 0  
Moisture  
Dew Point 40 °F    
Average Humidity 0    
Maximum Humidity 0    
Minimum Humidity 0    
Precipitation  
Precipitation 0.20 in 0.16 in 0.77 in (1993)
Month to date precipitation 1.39 1.58  
Year to date precipitation 37.27 33.81  
Snow  
Snow 0.00 in 0.30 in 1.30 in (2007)
Month to date snowfall 1.7 2.5  
Since 1 July snowfall 2.7 4.9  
Since 1 September snowfall 2.7 4.9  
Snow Depth 0.00 in    
Sea Level Pressure  
Sea Level Pressure 29.54 in    
Wind  
Wind Speed 14 mph (WNW)    
Max Wind Speed 21 mph    
Max Gust Speed 25 mph    
Visibility 2 miles    
Events Rain    
T = Trace of Precipitation, MM = Missing Value Source: NWS Daily Summary

Daily Weather History Graph

Daily Weather History Graph

Search for Another Location

Airport:

Trip Planner

Search our weather history database for the weather conditions in past years. The results will help you decide how hot, cold, wet, or windy it might be!

Date:

Astronomy

Nov. 10, 2012 Rise Set
Actual Time 9:15 AM AKST 5:53 PM AKST
Civil Twilight 8:34 AM AKST 6:34 PM AKST
Nautical Twilight 7:50 AM AKST 7:18 PM AKST
Astronomical Twilight 7:07 AM AKST 8:00 PM AKST
Moon 5:02 AM AKST (11/10) 4:14 PM AKST (11/10)
Length of Visible Light 9h 59m
Length of Day
8h 38m
Waning Crescent, 13% of the Moon is Illuminated
Nov 10
Waning Crescent
Nov 13
New
Nov 20
First Quarter
Nov 28
Full
Dec 6
Last Quarter

Hourly Weather History & Observations

Time (AKST) Temp. Windchill Dew Point Humidity Pressure Visibility Wind Dir Wind Speed Gust Speed Precip Events Conditions
12:02 AM 41.0 °F 33.9 °F 39.2 °F 93% 29.30 in 1.2 mi WNW 12.7 mph - 0.00 in Rain Light Rain
12:29 AM 41.0 °F 33.5 °F 39.2 °F 93% 29.31 in 2.5 mi NNW 13.8 mph - 0.01 in Rain Light Rain
12:34 AM 41.0 °F 33.5 °F 39.2 °F 93% 29.31 in 3.0 mi NNW 13.8 mph - 0.01 in Rain Light Rain
12:46 AM 41.0 °F 34.3 °F 39.2 °F 93% 29.32 in 4.0 mi NNW 11.5 mph - 0.01 in Rain Light Rain
12:53 AM 41.0 °F 34.3 °F 39.9 °F 96% 29.33 in 4.0 mi NW 11.5 mph - 0.01 in Rain Light Rain
1:04 AM 39.2 °F 31.6 °F 39.2 °F 100% 29.33 in 4.0 mi NW 12.7 mph - 0.01 in Rain Light Rain
1:10 AM 39.2 °F 32.5 °F 39.2 °F 100% 29.33 in 4.0 mi NW 10.4 mph - 0.01 in Rain Light Rain
1:17 AM 41.0 °F 34.7 °F 39.2 °F 93% 29.34 in 4.0 mi NW 10.4 mph - 0.01 in Rain Light Rain
1:48 AM 41.0 °F 33.5 °F 39.2 °F 93% 29.35 in 4.0 mi NW 13.8 mph - 0.02 in Rain Light Rain
1:53 AM 41.0 °F 33.5 °F 39.9 °F 96% 29.35 in 4.0 mi NW 13.8 mph - 0.03 in Rain Light Rain
2:59 AM 39.2 °F 32.0 °F 39.2 °F 100% 29.36 in 2.5 mi WNW 11.5 mph - 0.01 in Rain Light Rain
3:09 AM 41.0 °F 34.7 °F 39.2 °F 93% 29.37 in 1.2 mi WNW 10.4 mph - 0.01 in Rain Light Rain
3:30 AM 41.0 °F 33.5 °F 39.2 °F 93% 29.38 in 2.5 mi NNW 13.8 mph - 0.02 in Rain Light Rain
3:37 AM 39.2 °F 31.2 °F 39.2 °F 100% 29.38 in 4.0 mi NNW 13.8 mph - 0.02 in Rain Light Rain
3:53 AM 39.9 °F 32.1 °F 39.9 °F 100% 29.40 in 2.5 mi NNW 13.8 mph - 0.02 in Rain Light Rain
4:04 AM 39.2 °F 30.5 °F 39.2 °F 100% 29.40 in 4.0 mi NNW 16.1 mph - 0.00 in Rain Light Rain
4:15 AM 41.0 °F 33.9 °F 39.2 °F 93% 29.41 in 6.0 mi NNW 12.7 mph - 0.00 in Rain Light Rain
4:53 AM 41.0 °F 32.5 °F 39.9 °F 96% 29.43 in 7.0 mi NW 17.3 mph - 0.00 in   Overcast
5:10 AM 41.0 °F 32.8 °F 39.2 °F 93% 29.43 in 1.8 mi NW 16.1 mph - N/A   Overcast
5:44 AM 39.2 °F 29.6 °F 39.2 °F 100% 29.45 in 2.0 mi NW 19.6 mph - N/A   Overcast
5:53 AM 39.9 °F 30.2 °F 39.0 °F 97% 29.46 in 2.5 mi NW 20.7 mph - 0.00 in Rain Light Rain
6:07 AM 39.2 °F 30.2 °F 39.2 °F 100% 29.46 in 1.8 mi NW 17.3 mph - 0.00 in   Overcast
6:53 AM 39.9 °F 30.8 °F 39.9 °F 100% 29.48 in 1.5 mi NW 18.4 mph - 0.00 in   Overcast
7:53 AM 39.9 °F 31.4 °F 39.9 °F 100% 29.51 in 1.5 mi NW 16.1 mph - N/A   Overcast
8:53 AM 39.9 °F 31.8 °F 39.9 °F 100% 29.52 in 1.0 mi NW 15.0 mph - N/A   Mist
9:02 AM 39.2 °F 31.2 °F 39.2 °F 100% 29.52 in 0.8 mi NW 13.8 mph - N/A   Mist
9:33 AM 39.2 °F 31.6 °F 39.2 °F 100% 29.54 in 1.0 mi WNW 12.7 mph - N/A   Mist
9:41 AM 39.2 °F 32.0 °F 39.2 °F 100% 29.55 in 0.8 mi WNW 11.5 mph - N/A   Mist
9:50 AM 39.2 °F 32.0 °F 39.2 °F 100% 29.55 in 1.5 mi WNW 11.5 mph - N/A   Overcast
9:53 AM 39.9 °F 32.5 °F 39.9 °F 100% 29.55 in 1.8 mi WNW 12.7 mph - N/A   Overcast
10:53 AM 41.0 °F 33.1 °F 39.9 °F 96% 29.58 in 1.0 mi WNW 15.0 mph - 0.00 in Rain Light Rain
11:14 AM 41.0 °F 34.3 °F 39.2 °F 93% 29.58 in 2.0 mi WNW 11.5 mph - 0.01 in Rain Light Rain
11:44 AM 41.0 °F 33.9 °F 41.0 °F 100% 29.59 in 1.2 mi NW 12.7 mph - 0.02 in   Overcast
11:53 AM 41.0 °F 33.9 °F 41.0 °F 100% 29.60 in 1.0 mi WNW 12.7 mph - 0.02 in   Mist
12:08 PM 41.0 °F 33.5 °F 41.0 °F 100% 29.59 in 0.8 mi WNW 13.8 mph - N/A   Mist
12:20 PM 41.0 °F 33.1 °F 41.0 °F 100% 29.60 in 1.5 mi WNW 15.0 mph - 0.00 in Rain Light Rain
12:53 PM 41.0 °F 32.5 °F 41.0 °F 100% 29.60 in 1.0 mi WNW 17.3 mph - 0.01 in Rain Light Rain
1:13 PM 41.0 °F 32.8 °F 41.0 °F 100% 29.60 in 2.5 mi NW 16.1 mph - 0.01 in   Overcast
1:34 PM 41.0 °F 32.8 °F 41.0 °F 100% 29.61 in 1.8 mi WNW 16.1 mph - 0.01 in   Overcast
1:48 PM 41.0 °F 33.5 °F 41.0 °F 100% 29.61 in 2.5 mi WNW 13.8 mph - 0.01 in   Overcast
1:53 PM 41.0 °F 33.5 °F 41.0 °F 100% 29.62 in 2.5 mi NW 13.8 mph - 0.01 in   Overcast
2:00 PM 41.0 °F 33.1 °F 41.0 °F 100% 29.61 in 4.0 mi WNW 15.0 mph - N/A   Overcast
2:35 PM 41.0 °F 33.5 °F 41.0 °F 100% 29.61 in 2.0 mi NW 13.8 mph - N/A   Overcast
2:53 PM 41.0 °F 33.5 °F 39.9 °F 96% 29.62 in 2.0 mi NW 13.8 mph - 0.00 in Rain Light Rain
3:07 PM 41.0 °F 33.1 °F 39.2 °F 93% 29.62 in 3.0 mi WNW 15.0 mph - 0.01 in   Overcast
3:24 PM 41.0 °F 33.5 °F 39.2 °F 93% 29.62 in 3.0 mi WNW 13.8 mph - 0.01 in   Overcast
3:53 PM 41.0 °F 34.3 °F 39.9 °F 96% 29.63 in 4.0 mi WNW 11.5 mph - 0.02 in Rain Light Rain
4:15 PM 39.2 °F 32.0 °F 39.2 °F 100% 29.63 in 1.8 mi West 11.5 mph - 0.00 in Rain Light Rain
4:27 PM 39.2 °F 31.6 °F 39.2 °F 100% 29.63 in 2.0 mi West 12.7 mph - 0.00 in Rain Light Rain
4:51 PM 39.2 °F 31.2 °F 39.2 °F 100% 29.64 in 2.0 mi West 13.8 mph - 0.01 in Rain Light Rain
4:53 PM 39.9 °F 31.8 °F 39.9 °F 100% 29.64 in 2.0 mi West 15.0 mph - 0.01 in Rain Light Rain
5:00 PM 39.2 °F 31.2 °F 39.2 °F 100% 29.64 in 1.8 mi West 13.8 mph - 0.00 in Rain Light Rain
5:08 PM 39.2 °F 31.2 °F 39.2 °F 100% 29.64 in 2.0 mi West 13.8 mph - 0.01 in Rain Light Rain
5:19 PM 39.2 °F 31.6 °F 39.2 °F 100% 29.64 in 1.8 mi West 12.7 mph - 0.01 in Rain Light Rain
5:41 PM 39.2 °F 30.8 °F 39.2 °F 100% 29.64 in 2.0 mi West 15.0 mph - 0.02 in Rain Light Rain
5:53 PM 39.9 °F 32.1 °F 39.0 °F 97% 29.65 in 1.8 mi West 13.8 mph - 0.02 in   Overcast
6:11 PM 39.2 °F 31.6 °F 39.2 °F 100% 29.64 in 2.5 mi West 12.7 mph - N/A   Overcast
6:53 PM 39.0 °F 31.0 °F 39.0 °F 100% 29.66 in 2.5 mi West 13.8 mph - N/A   Overcast
7:53 PM 39.0 °F 31.8 °F 39.0 °F 100% 29.68 in 2.5 mi West 11.5 mph - 0.01 in   Overcast
8:39 PM 39.2 °F 31.6 °F 39.2 °F 100% 29.68 in 3.0 mi West 12.7 mph - 0.01 in   Overcast
8:53 PM 39.0 °F 31.4 °F 39.0 °F 100% 29.68 in 3.0 mi West 12.7 mph - 0.01 in   Overcast
9:05 PM 39.2 °F 32.0 °F 39.2 °F 100% 29.68 in 2.5 mi West 11.5 mph - N/A   Overcast
9:53 PM 39.0 °F 31.4 °F 39.0 °F 100% 29.70 in 2.5 mi West 12.7 mph - 0.01 in   Overcast
10:53 PM 39.0 °F 31.4 °F 39.0 °F 100% 29.71 in 3.0 mi West 12.7 mph - N/A   Overcast
11:17 PM 39.2 °F 32.0 °F 39.2 °F 100% 29.71 in 2.5 mi West 11.5 mph - N/A   Overcast
11:53 PM 39.0 °F 31.8 °F 39.0 °F 100% 29.71 in 2.5 mi West 11.5 mph - 0.01 in   Overcast